AirNav   ProFlight Series 2 Aviation Headset
 
 1127 users online  

KRIV March Air Reserve Base
Riverside, California, USA

GOING TO RIVERSIDE?


FAA INFORMATION EFFECTIVE 08 OCTOBER 2020

Location

FAA Identifier: RIV
Lat/Long: 33-52-54.9960N 117-15-32.4610W
33-52.916600N 117-15.541017W
33.8819433,-117.2590169
(estimated)
Elevation: 1536 ft. / 468 m (estimated)
Variation: 14E (1980)
From city: 6 miles SE of RIVERSIDE, CA
Time zone: UTC -7 (UTC -8 during Standard Time)
Zip code: 92518

Airport Operations

Airport use: Open to the public
Activation date: 05/1941
Control tower: yes
ARTCC: LOS ANGELES CENTER
FSS: RIVERSIDE FLIGHT SERVICE STATION
NOTAMs facility: RIV (NOTAM-D service available)
Attendance: 0700-2300
OPR 1500-0700Z++ DLY, CLSD HOL; OPS 0700-1500Z++ DLY REQ 452OG/CC APVL, EXC FOR KRIV BASED ALERT MSN.
Pattern altitude: TFC PAT - RECTANGULAR 3000', OVERHEAD 3500'.
Segmented circle: no
Beacon: white-green (lighted land airport)
Operates sunset to sunrise.
International operations: international airport of entry

Airport Communications

ATIS: 134.75 239.05
MARCH GROUND: 121.75 335.8
MARCH TOWER: 127.65 253.5
MARCH APPROACH: 133.5 306.975 134.0 [OPR 1500-0700Z++ DAILY, CLSD HOL, OT CTC SOCAL APP/DEP]
SOCAL APPROACH: 119.25 270.275 [0700-1500Z++]
MARCH DEPARTURE: 133.5 306.975 134.0 [OPR 1500-0700Z++ DAILY, CLSD HOL, OT CTC SOCAL APP/DEP]
SOCAL DEPARTURE: 119.25 270.275 [0700-1500Z++]
CLEARANCE DELIVERY: 121.75 335.8
AFRC OPS: 252.1
CLASS C: 119.25 133.5 270.275 306.975
COMD POST: 138.45 311.0 349.0
EMERG: 121.5 243.0
PMSV METRO: 239.8
PTD: 372.2
RADAR: 133.5 134.1X 271.3X
WX ASOS at RAL (10 nm NW): 128.8 (951-352-4392)
WX AWOS-3 at SBD (13 nm N): 124.175 (909-382-0067)
WX AWOS-3PT at HMT (15 nm SE): 118.375 (951-925-6886)
WX AWOS-3PT at AJO (17 nm W): 132.175 (951-340-4764)
WX AWOS-3 at F70 (20 nm S): 119.025 (951-696-1018)
WX ASOS at CNO (20 nm W): PHONE 909-393-5823
WX ASOS at ONT (20 nm NW): PHONE 909-937-2186
  • PTD RCPT EXTREMELY LTD DUE TO HI SUR TERRAIN.
  • AUGMENTED AWOS IN USE. WX STATION H24, DSN 447-3602, C951-655-3602. FOR ADDN INFO OR DUR EVAC OF WX, CTC THE 25TH OWS AT DAVIS MONTHAN AFB, AZ DSN 228-6698, C520-228-6698.

Nearby radio navigation aids

VOR radial/distance  VOR name  Freq  Var
HDFr316/(7.3)HOMELAND VOR113.4014E
RALr101/(10.5)RIVERSIDE VOR112.4014E
PDZr084/13.7PARADISE VORTAC112.2015E
ELBr048/26.6EL TORO VOR/DME117.2014E
POMr099/28.8POMONA VORTAC110.4015E
OCNr357/39.3OCEANSIDE VORTAC115.3015E

 
NDB name  Hdg/Dist  Freq  Var  ID
PETIS139/11.739714ESB ... -...

Airport Services

Fuel available: 100LL JET-A JET-A++
FULL SVC AVBL AT FBO; SELF-SERVE UNAVBL.
Airframe service: MAJOR
Powerplant service: MAJOR
Bottled oxygen: HIGH/LOW
Bulk oxygen: HIGH/LOW

Runway Information

Runway 14/32

Dimensions: 13302 x 200 ft. / 4054 x 61 m
Surface: concrete, in good condition
Weight bearing capacity: 
PCN 58 /R/B/W/T
Runway edge lights: high intensity
RUNWAY 14  RUNWAY 32
Latitude: 33-53.785833N33-51.899667N
Longitude: 117-16.238167W117-14.896833W
Elevation: 1535.5 ft.1488.3 ft.
Traffic pattern: leftleft
Runway heading: 135 magnetic, 149 true315 magnetic, 329 true
Markings: basic, in good conditionprecision, in good condition
Visual slope indicator: 4-light PAPI on left (2.59 degrees glide path)4-light PAPI on left (3.00 degrees glide path)
RVR equipment: touchdown, midfield, rollouttouchdown, midfield, rollout
Approach lights: ALSF1: standard 2,400 foot high intensity approach lighting system with centerline sequenced flashers (category I)
Runway end identifier lights: nono
Touchdown point: yes, no lightsyes, no lights
Instrument approach: ILS

Runway 12/30

Dimensions: 3061 x 100 ft. / 933 x 30 m
Surface: asphalt
Weight bearing capacity: 
PCN 20 /F/A/W/T
Operational restrictions: RY 12/30 CLSD TO PUBLIC-USE ONLY.
RUNWAY 12  RUNWAY 30
Latitude: 33-53.415500N33-53.059167N
Longitude: 117-15.640833W117-15.212167W
Elevation: 1519.1 ft.1507.1 ft.
Traffic pattern: leftleft
Runway heading: 121 magnetic, 135 true301 magnetic, 315 true
Touchdown point: yes, no lightsyes, no lights

Airport Ownership and Management from official FAA records

Ownership: U.S. Air Force
Owner: UNITED STATES AIR FORCE
2645 GRAEBER ST., BLDG. 1220
MARCH ARB, CA 92518
Phone 951-203-2422
Manager: GARY W. GOSLIGA
2645 GRAEBER ST., BLDG. 1220
MARCH ARB, CA 92518
Phone 951-655-4404

Airport Operational Statistics

Aircraft based on the field: 8
Single engine airplanes: 7
Multi engine airplanes: 1
    

Additional Remarks

E60-32 TYPE-H BAK-12B(B) (1500')
E60-14 TYPE-H BAK-12B(B) (1500')
CAUTION: NSTD RWY MRK-LANDING ZONE (LZ) MARK (3500X90 PAINTED ON RWY 32 FOR BASE ASGN C17 ACFT ONLY).
TSNT ACFT NO PRACTICE APCH 2100-0700.
GEN AVN OPS PMTD DUR FBO BUS HRS. FBO BUS HRS 1400-0600Z++ MON-FRI, OPEN SAT-SUN (IF REQ PRIOR TO CLOSE OF BUS FRI) AND WILL HONOR MEDICAL REQ MADE AT ANY TIME, CALL 951-247-2111.
USE EXTREME CAUTION FOR EXTV UAS OPS IN VCNTY.
NONSTANDARD TACAN CHECKPOINT SIGNS LCTD AT RWY A AND TWY F.
MIL RMK: 24 HR PN/PPR FOR ALL TRAN ACFT, CTC AFLD MGMT OPS DSN 447-4404/2422, C951-655-4404/2422.
MIL RMK: ALL INBD PAX/CARGO ACFT MUST CTC COMD POST DSN 447-4665 24 HR PRIOR TO ARR WITH TYPE CARGO AND NR OF PAX.
CSTMS/AG/IMG - CTC AFLD MGMT OPS DSN 447-4404/2422, C951-655-4404/2422 AT LEAST 24 HR PN TO ARR RQR. LTD SVC, NO RESIDENT CSTMS AGENT, BUT ON CALL H24, DRIVING FR ONTARIO INTL. NO-NTC ACFT THAT RQR CSTMS EXP MIN 2 HR DELAY. CSTMS RQR FOLLOWING FORMS FOR ARR ACFT - CBP FORM 7507 GENERAL DECLARATION, CBP FORM 6059B CUSTOMS DECLARATION FR ALL PERS ONBOARD LCTD HTTPS://WWW.CBP.GOV/NEWSROOM/PUBLICATIONS/FORMS, PAX/CARGO MANIFEST AS APPLICABLE. AIRCREW, PAX, CARGO RQR TO REMAIN IN ACFT TIL RELEASED BY CSTMS. APV LDG RIGHTS AND OVFT EXM REQ. NOT A PORT OF ENTRY, IMG SVC EXTREMELY LTD, CASE-BY-CASE BASIS. CTC PTD 2 HR PRIOR TO LDG VIA DRCT A/G COM OR FONE PATCH.
SERVICE - OIL: JOAP AVBL ONLY ON RESERVE WKEND. O-148.
CAUTION: EXTV GLIDER, SKYDIVING, BALLOONIST AND ULTRALIGHT ACT AT PERRIS ARPT, 7 NM S OF MARCH.
CAUTION: HEAVY MILITARY FLIGHT TRAINING.
JOINT USE AIRPORT - OWNED AND OPERATED BY US AIR FORCE/ NO CIVIL TOUCH AND GO OPS OR MANEUVERS.
AIRFIELD USE AGREEMENT WITH CIVIL ARPT AUTH (MARCH INLAND PORT ARPT AUTH) MILITARY, CIVIL COMMERCIAL AND GENERAL AVIATION(GA) USES.
GA OPS - PPR AND/OR LANDING PERMIT NOT REQ FOR USE OF CIVIL APRON AND RAMPS/FBO INF. -FREEMAN HOLDINGS 951-247-2111 / FREQS 130.075.
RY 12/30 CLSD TO PUBLIC DUE TO MUNITIONS AND EXPLOSIVES OPS IN CLOSE PROXIMITY OF RY 12/30 PER UFC & DOD REGULATIONS.
TRANSPORTATION LIMITED, PRIOR COORDINATION REQUIRED, CTC DSN 447-7787 WKND.

Instrument Procedures

NOTE: All procedures below are presented as PDF files. If you need a reader for these files, you should download the free Adobe Reader.

NOT FOR NAVIGATION. Please procure official charts for flight.
FAA instrument procedures published for use from 08 October 2020 at 0901Z to 05 November 2020 at 0900Z.

 
STARs - Standard Terminal Arrivals
ARKOE ONE   download (189KB)
MARCH FOUR **CHANGED**   download (164KB)
 
IAPs - Instrument Approach Procedures
HI-ILS OR LOC Z RWY 32   download (260KB)
ILS OR LOC X RWY 32   download (181KB)
ILS OR LOC Y RWY 32   download (187KB)
RNAV (GPS) RWY 14   download (109KB)
RNAV (GPS) RWY 32   download (128KB)
RNAV (GPS)-A   download (131KB)
HI-VOR Z RWY 32   download (249KB)
VOR Y RWY 32   download (164KB)
HI-TACAN Z RWY 14   download (145KB)
HI-TACAN Z RWY 32   download (168KB)
TACAN Y RWY 14   download (150KB)
TACAN Y RWY 32   download (161KB)
 
Departure Procedures
SKYES FOUR   download (179KB)
NOTE: Special Take-Off Minimums/Departure Procedures apply   download (190KB)

Other nearby airports with instrument procedures:

KRIR - Flabob Airport (10 nm NW)
KRAL - Riverside Municipal Airport (10 nm NW)
KSBD - San Bernardino International Airport (13 nm N)
KREI - Redlands Municipal Airport (13 nm NE)
KHMT - Hemet-Ryan Airport (15 nm SE)
KAJO - Corona Municipal Airport (17 nm W)
F70 - French Valley Airport (20 nm S)
KCNO - Chino Airport (20 nm W)
KONT - Ontario International Airport (20 nm NW)
 
Loc | Ops | Rwys | IFR | FBO | Links
Com | Nav | Svcs | Stats | Notes

Guardian Jet Center
 
Area around KRIV (March Air Reserve Base)
 
Road maps at: MapQuest Bing Google
 
Aerial photo
WARNING: Photo may not be current or correct
Aerial photo of KRIV (March Air Reserve Base)
Photo by Mark Holtzman
Photo taken 11-Jul-2017
looking south.

Do you have a better or more recent aerial photo of March Air Reserve Base that you would like to share? If so, please send us your photo.

 
Sectional chart

 
Airport diagram
Diagram of KRIV (March Air Reserve Base)
Download PDF
of official airport diagram from the FAA

 
Airport distance calculator
Flying to March Air Reserve Base? Find the distance to fly.

From to KRIV

Sunrise and sunset
Times for 31-Oct-2020
 Local
(UTC-7)
 Zulu
(UTC)
Morning civil twilight06:4413:44
Sunrise07:1014:10
Sunset17:5600:56
Evening civil twilight18:2201:22

Current date and time
Zulu (UTC)  31-Oct-2020 17:14:39
Local (UTC-7)  31-Oct-2020 10:14:39
 
METAR
KRIV 311658Z AUTO 16003KT 10SM CLR 21/00 A3008 RMK AO2 SLP179 T02061001
KRAL 
10nm NW 
311653Z 05005KT 10SM CLR 21/02 A3006 RMK AO2 SLP165 T02060022
KSBD 
13nm N 
311645Z 00000KT 7SM SKC 21/M02 A3007
KHMT 
15nm SE 
311655Z AUTO 00000KT 10SM 20/M01 A3008 RMK AO2 T02041012
KAJO 
17nm W 
311656Z AUTO 00000KT 7SM CLR 17/08 A3006 RMK AO2 SLP177 T01670078
KCNO 
19nm W 
311653Z 21004KT 10SM FEW150 21/06 A3006 RMK AO2 SLP177 T02110056
KONT 
19nm NW 
311653Z 00000KT 10SM FEW250 23/M01 A3005 RMK AO2 SLP165 T02281006
KF70 
20nm S 
311655Z AUTO 36004KT 10SM CLR 21/00 A3007 RMK AO1
TAF
KRIV 311205Z 3112/0118 VRB04KT 9999 FEW250 QNH3000INS BECMG 3121/3122 31009KT 9999 SCT220 QNH2998INS BECMG 0102/0103 VRB04KT 9999 BKN200 QNH3005INS TX32/3122Z TN04/3113Z
KSBD 
13nm N 
311133Z 3112/0112 VRB04KT 6SM HZ SCT200 FM312000 26008KT P6SM BKN200 FM010300 VRB04KT P6SM BKN200
KONT 
19nm NW 
311133Z 3112/0118 VRB05KT 6SM HZ SCT200 FM312000 26012KT P6SM BKN200 FM010300 VRB04KT P6SM BKN200
NOTAMs
Click for the latest NOTAMs
NOTAMs are issued by the DoD/FAA and will open in a separate window not controlled by AirNav.

 

 
 

FBO, Fuel Providers, and Aircraft Ground Support

  
 Business Name 
 
 Contact 
 
 Services / Description 
 
Fuel Prices
 
Comments
  
Million Air 951-247-2111
[web site]
[email]
Aviation fuel, Aircraft ground handling, Aircraft parking (ramp or tiedown), GPU / Power cart, Passenger terminal and lounge, Catering, ...
 
NATA Safety 1st   U.S. Government Contract Fuel   Everest Fuel   World Fuel Contract Fuel   Contract Fuel   Crew cars   Hertz  
 
More info about Million Air
World Fuel Services
100LL Jet A
FS $5.26 $4.08 
GUARANTEED
 
   2 read write
Alternatives at nearby airports
IMPORTANT: Note that the FBOs below are NOT at KRIV but at other nearby airports. Do not expect services from these FBOs to be available at KRIV.
Located at KONT
Guardian Jet Center
ASRI 130.75
909-605-6366
[web site]
[email]

Like us on facebook See us on instagram
At KONT (Ontario International Airport), 20 miles WNW

See our website for all the details you need!
More info and photos of Guardian Jet Center (KONT)
Located at KONT
World Fuel Services
100LL Jet A
FS $6.25 $3.99 
 Updated 30-Oct-2020
 
   3 read write
FS=Full service
Update Fuel Prices
 

Would you like to see your business listed on this page?

 If your business provides an interesting product or service to pilots, flight crews, aircraft, or users of the March Air Reserve Base, you should consider listing it here.  To start the listing process, click on the button below
 
Add a business
 

Other Pages about March Air Reserve Base

www.marchjpa.com/marchinlandportauthority.php
 
Update a link
 
Copyright © AirNav, LLC. All rights reserved. Privacy Policy  Contact